Location: *
(45.9500°N, 9.0833°E)
Time: 01:40:34
(UTC+00:00)

SR - Pass Details

Date: 17 June 2021
Orbit: 577 x 878 km, 66.7° (Epoch: 23 July)

Event Time Altitude Azimuth Distance (km) Brightness Sun altitude
Rises 17:16:59 0° 230° (SW) 3,454 ? 17.9°
Reaches altitude 10° 17:19:34 10° 236° (SW) 2,528 ? 17.4°
Maximum altitude 17:25:16 48° 310° (NW) 1,126 ? 16.5°
Drops below altitude 10° 17:30:53 10° 25° (NNE) 2,487 ? 15.6°
Sets 17:33:25 0° 31° (NNE) 3,394 ? 15.1°
